CST,Max TemperatureF,Mean TemperatureF,Min TemperatureF,Max Dew PointF,MeanDew PointF,Min DewpointF,Max Humidity, Mean Humidity, Min Humidity, Max Sea Level PressureIn, Mean Sea Level PressureIn, Min Sea Level PressureIn, Max VisibilityMiles, Mean VisibilityMiles, Min VisibilityMiles, Max Wind SpeedMPH, Mean Wind SpeedMPH, Max Gust SpeedMPH,PrecipitationIn, CloudCover, Events, WindDirDegrees
2013-1-1,32,26,19,32,25,18,100,93,86,30.29,30.21,30.07,7,6,2,21,13,22,0.00,5,Snow,333
2013-1-2,41,29,17,28,23,16,100,89,57,30.30,30.27,30.18,10,8,3,16,3,,0.00,3,,280
2013-1-3,41,30,19,28,23,18,100,82,49,30.46,30.39,30.29,10,10,7,14,5,18,0.00,0,,308
2013-1-4,50,32,14,32,24,12,93,77,35,30.43,30.34,30.25,10,10,7,17,5,24,0.00,4,,191
2013-1-5,51,42,30,34,29,23,87,71,41,30.31,30.22,30.13,10,10,10,21,10,22,0.00,4,,230
2013-1-6,53,38,23,28,23,19,93,67,28,30.44,30.33,30.29,10,10,10,12,6,,0.00,0,,262
2013-1-7,51,35,19,28,23,18,93,78,38,30.29,30.17,30.03,10,10,10,20,5,24,0.00,1,,180
2013-1-8,57,42,26,39,31,25,100,82,41,30.17,30.06,29.97,10,9,5,20,8,21,0.00,1,,180
2013-1-9,55,44,33,43,35,30,100,80,38,30.36,30.22,30.13,10,8,3,17,9,22,0.05,5,Rain,23
2013-1-10,51,46,41,52,46,41,100,99,93,30.12,29.89,29.77,10,4,0,16,10,22,0.07,7,Fog-Rain,102
2013-1-11,66,54,42,50,43,25,100,78,35,29.82,29.72,29.60,10,10,3,23,12,36,0.00,2,,212
2013-1-12,50,38,26,34,23,14,87,65,40,30.09,29.98,29.82,10,10,7,24,17,32,0.00,3,Snow,352
2013-1-13,30,24,17,16,13,9,80,68,40,30.37,30.24,30.06,10,10,10,21,14,24,0.00,1,,358
2013-1-14,35,25,15,18,13,10,80,67,35,30.45,30.35,30.30,10,10,10,14,6,,0.00,1,,34
2013-1-15,35,27,19,19,16,10,86,74,35,30.32,30.26,30.20,10,10,10,17,6,,0.00,2,,11
2013-1-16,50,32,15,30,21,10,87,72,34,30.22,30.17,30.09,10,10,10,14,4,,0.00,0,,265
2013-1-17,55,42,30,32,30,27,87,72,38,30.56,30.39,30.23,10,10,10,18,11,,0.00,0,,330
2013-1-18,59,42,24,34,29,23,93,72,36,30.44,30.28,30.11,10,10,10,26,9,34,0.00,0,,180
2013-1-19,66,49,32,34,30,27,87,69,28,30.22,30.13,30.05,10,10,10,13,7,,0.00,0,,233
2013-1-20,62,45,28,32,25,14,80,65,31,30.32,30.23,30.11,10,10,10,25,9,29,0.00,0,,11
2013-1-21,41,30,19,16,13,10,68,56,31,30.45,30.33,30.25,10,10,10,16,11,,0.00,0,,35
2013-1-22,59,39,19,28,22,16,86,69,31,30.27,30.21,30.12,10,10,10,17,6,21,0.00,0,,156
2013-1-23,62,42,23,39,29,19,93,72,39,30.21,30.17,30.11,10,9,7,17,7,,0.00,2,,9
2013-1-24,41,34,28,32,25,16,93,76,48,30.28,30.21,30.14,10,7,2,20,14,24,0.00,5,,24
2013-1-25,50,39,28,37,28,25,93,77,40,30.26,30.19,30.13,10,8,5,12,6,,0.00,5,,355
2013-1-26,53,40,26,43,34,23,100,81,54,30.22,30.13,30.01,10,8,3,18,6,23,0.00,5,Rain,140
2013-1-27,69,56,42,55,50,43,100,89,60,30.00,29.87,29.75,10,6,0,29,15,37,0.00,5,Fog-Rain,174
2013-1-28,73,62,50,61,56,48,94,84,61,29.86,29.76,29.67,10,10,10,29,13,38,0.00,2,,185
2013-1-29,66,52,37,61,46,34,94,84,76,29.67,29.62,29.52,10,9,3,31,13,44,0.00,5,Rain-Thunderstorm,302
2013-1-30,44,35,26,34,26,18,87,74,36,30.02,29.89,29.64,10,10,10,23,15,31,0.00,4,,309
2013-1-31,50,36,21,28,20,12,86,67,37,30.44,30.18,29.99,10,10,10,22,7,29,0.00,1,,355